Time,TemperatureF,DewpointF,PressureIn,WindDirection,WindDirectionDegrees,WindSpeedMPH,WindSpeedGustMPH,Humidity,HourlyPrecipIn,Conditions,Clouds,dailyrainin,SoftwareType,DateUTC
2018-05-27 00:01:00,71.0,69.5,29.70,North,8,0.0,0.0,95,0.00,,,0.00,VWS V14.01,2018-05-27 04:01:00,
2018-05-27 00:06:00,71.0,69.5,29.70,North,7,0.0,0.0,95,0.00,,,0.00,VWS V14.01,2018-05-27 04:06:00,
2018-05-27 00:11:00,70.9,69.4,29.71,North,8,0.0,0.0,95,0.00,,,0.00,VWS V14.01,2018-05-27 04:11:00,
2018-05-27 00:16:00,70.7,69.2,29.71,North,7,0.0,0.0,95,0.00,,,0.00,VWS V14.01,2018-05-27 04:16:00,
2018-05-27 00:21:00,70.5,69.0,29.71,North,8,0.0,0.0,95,0.00,,,0.00,VWS V14.01,2018-05-27 04:21:00,
2018-05-27 00:26:00,70.2,68.7,29.71,North,7,0.0,0.0,95,0.00,,,0.00,VWS V14.01,2018-05-27 04:26:00,
2018-05-27 00:31:00,70.0,68.5,29.71,North,7,0.0,0.0,95,0.00,,,0.00,VWS V14.01,2018-05-27 04:31:00,
2018-05-27 00:36:00,70.1,68.6,29.71,North,7,0.0,0.0,95,0.00,,,0.00,VWS V14.01,2018-05-27 04:36:00,
2018-05-27 00:41:00,70.0,68.5,29.71,North,7,0.0,0.0,95,0.00,,,0.00,VWS V14.01,2018-05-27 04:41:00,
2018-05-27 00:46:00,70.0,68.8,29.71,North,8,0.0,0.0,96,0.00,,,0.00,VWS V14.01,2018-05-27 04:46:00,
2018-05-27 00:51:00,70.0,68.8,29.71,North,7,0.0,0.0,96,0.00,,,0.00,VWS V14.01,2018-05-27 04:51:00,
2018-05-27 00:56:00,70.1,68.9,29.70,North,7,0.0,0.0,96,0.00,,,0.00,VWS V14.01,2018-05-27 04:56:00,
2018-05-27 01:01:00,70.0,68.8,29.70,North,7,0.0,0.0,96,0.00,,,0.00,VWS V14.01,2018-05-27 05:01:00,
2018-05-27 01:06:00,70.0,68.8,29.70,North,8,0.0,0.0,96,0.00,,,0.00,VWS V14.01,2018-05-27 05:06:00,
2018-05-27 01:11:00,70.0,68.8,29.70,North,11,0.0,0.0,96,0.00,,,0.00,VWS V14.01,2018-05-27 05:11:00,
2018-05-27 01:16:00,69.9,68.4,29.70,North,11,0.0,0.0,95,0.00,,,0.00,VWS V14.01,2018-05-27 05:16:00,
2018-05-27 01:21:00,69.9,68.4,29.70,North,11,0.0,0.0,95,0.00,,,0.00,VWS V14.01,2018-05-27 05:21:00,
2018-05-27 01:26:00,69.7,68.2,29.70,North,11,0.0,0.0,95,0.00,,,0.00,VWS V14.01,2018-05-27 05:26:00,
2018-05-27 01:31:00,69.6,68.4,29.70,North,11,0.0,0.0,96,0.00,,,0.00,VWS V14.01,2018-05-27 05:31:00,
2018-05-27 01:36:00,69.5,68.0,29.70,North,11,0.0,0.0,95,0.00,,,0.00,VWS V14.01,2018-05-27 05:36:00,
2018-05-27 01:41:00,69.4,68.2,29.69,North,11,0.0,0.0,96,0.00,,,0.00,VWS V14.01,2018-05-27 05:41:00,
2018-05-27 01:46:00,69.3,68.1,29.69,North,11,0.0,0.0,96,0.00,,,0.00,VWS V14.01,2018-05-27 05:46:00,
2018-05-27 01:51:00,69.3,68.1,29.69,NNE,13,0.0,0.0,96,0.00,,,0.00,VWS V14.01,2018-05-27 05:51:00,
2018-05-27 01:56:00,69.1,67.9,29.69,NNE,13,0.0,0.0,96,0.00,,,0.00,VWS V14.01,2018-05-27 05:56:00,
2018-05-27 02:01:00,68.9,67.7,29.69,NNE,13,0.0,0.0,96,0.00,,,0.00,VWS V14.01,2018-05-27 06:01:00,
2018-05-27 02:06:00,68.9,67.7,29.69,NNE,13,0.0,0.0,96,0.00,,,0.00,VWS V14.01,2018-05-27 06:06:00,
2018-05-27 02:11:00,68.8,67.6,29.69,NNE,13,0.0,0.0,96,0.00,,,0.00,VWS V14.01,2018-05-27 06:11:00,
2018-05-27 02:16:00,68.8,67.6,29.69,NNE,13,0.0,0.0,96,0.00,,,0.00,VWS V14.01,2018-05-27 06:16:00,
2018-05-27 02:21:00,68.7,67.5,29.69,NNE,13,0.0,0.0,96,0.00,,,0.00,VWS V14.01,2018-05-27 06:21:00,
2018-05-27 02:26:00,68.6,67.4,29.68,NNE,13,0.0,0.0,96,0.00,,,0.00,VWS V14.01,2018-05-27 06:26:00,
2018-05-27 02:31:00,68.7,67.5,29.69,NNE,13,0.0,0.0,96,0.00,,,0.00,VWS V14.01,2018-05-27 06:31:00,
2018-05-27 02:36:00,68.7,67.5,29.68,NNE,13,0.0,0.0,96,0.00,,,0.00,VWS V14.01,2018-05-27 06:36:00,
2018-05-27 02:41:00,68.7,67.8,29.68,NNE,13,0.0,0.0,97,0.00,,,0.00,VWS V14.01,2018-05-27 06:41:00,
2018-05-27 02:46:00,68.8,67.9,29.68,NNE,29,0.0,2.0,97,0.00,,,0.00,VWS V14.01,2018-05-27 06:46:00,
2018-05-27 02:51:00,68.8,67.9,29.68,NNE,27,0.0,2.0,97,0.00,,,0.00,VWS V14.01,2018-05-27 06:51:00,
2018-05-27 02:56:00,68.8,67.6,29.68,NNE,27,0.0,2.0,96,0.00,,,0.00,VWS V14.01,2018-05-27 06:56:00,
2018-05-27 03:01:00,68.8,67.6,29.68,NNE,27,0.0,0.0,96,0.00,,,0.00,VWS V14.01,2018-05-27 07:01:00,
2018-05-27 03:06:00,68.7,67.5,29.68,NNE,27,0.0,1.0,96,0.00,,,0.00,VWS V14.01,2018-05-27 07:06:00,
2018-05-27 03:11:00,68.7,67.5,29.68,NNE,27,0.0,1.0,96,0.00,,,0.00,VWS V14.01,2018-05-27 07:11:00,
2018-05-27 03:16:00,68.6,67.4,29.68,NNE,27,0.0,1.0,96,0.00,,,0.00,VWS V14.01,2018-05-27 07:16:00,
2018-05-27 03:21:00,68.6,67.7,29.68,NNE,27,0.0,1.0,97,0.00,,,0.00,VWS V14.01,2018-05-27 07:21:00,
2018-05-27 03:26:00,68.6,67.7,29.68,NNE,27,0.0,1.0,97,0.00,,,0.00,VWS V14.01,2018-05-27 07:26:00,
2018-05-27 03:31:00,68.6,67.7,29.69,NNE,27,0.0,1.0,97,0.00,,,0.00,VWS V14.01,2018-05-27 07:31:00,
2018-05-27 03:36:00,68.5,67.6,29.69,NNE,27,0.0,1.0,97,0.00,,,0.00,VWS V14.01,2018-05-27 07:36:00,
2018-05-27 03:41:00,68.4,67.5,29.68,NNE,27,0.0,1.0,97,0.00,,,0.00,VWS V14.01,2018-05-27 07:41:00,
2018-05-27 03:46:00,68.4,67.5,29.68,NNE,27,0.0,1.0,97,0.00,,,0.00,VWS V14.01,2018-05-27 07:46:00,
2018-05-27 03:51:00,68.3,67.4,29.69,NNE,27,0.0,1.0,97,0.00,,,0.00,VWS V14.01,2018-05-27 07:51:00,
2018-05-27 03:56:00,68.1,67.2,29.69,NNE,27,0.0,1.0,97,0.00,,,0.00,VWS V14.01,2018-05-27 07:56:00,
2018-05-27 04:01:00,67.9,67.0,29.69,NNE,27,0.0,0.0,97,0.00,,,0.00,VWS V14.01,2018-05-27 08:01:00,
2018-05-27 04:06:00,67.9,67.0,29.69,NNE,27,0.0,0.0,97,0.00,,,0.00,VWS V14.01,2018-05-27 08:06:00,
2018-05-27 04:11:00,67.9,67.0,29.69,NNE,27,0.0,1.0,97,0.00,,,0.00,VWS V14.01,2018-05-27 08:11:00,
2018-05-27 04:16:00,67.9,67.0,29.69,NNE,27,0.0,1.0,97,0.00,,,0.00,VWS V14.01,2018-05-27 08:16:00,
2018-05-27 04:21:00,67.9,67.0,29.69,NNE,27,0.0,1.0,97,0.00,,,0.00,VWS V14.01,2018-05-27 08:21:00,
2018-05-27 04:26:00,67.9,67.0,29.69,NNE,27,0.0,1.0,97,0.00,,,0.00,VWS V14.01,2018-05-27 08:26:00,
2018-05-27 04:31:00,67.8,66.9,29.69,NNE,27,0.0,1.0,97,0.00,,,0.00,VWS V14.01,2018-05-27 08:31:00,
2018-05-27 04:36:00,67.8,66.9,29.70,NNE,27,0.0,1.0,97,0.00,,,0.00,VWS V14.01,2018-05-27 08:36:00,
2018-05-27 04:41:00,67.9,67.3,29.70,NNE,27,0.0,1.0,98,0.00,,,0.00,VWS V14.01,2018-05-27 08:41:00,
2018-05-27 04:46:00,67.6,66.7,29.69,NNE,27,0.0,1.0,97,0.00,,,0.00,VWS V14.01,2018-05-27 08:46:00,
2018-05-27 04:51:00,67.5,66.6,29.69,NNE,27,0.0,1.0,97,0.00,,,0.00,VWS V14.01,2018-05-27 08:51:00,
2018-05-27 04:56:00,67.4,66.5,29.70,NNE,27,0.0,1.0,97,0.00,,,0.00,VWS V14.01,2018-05-27 08:56:00,
2018-05-27 05:01:00,67.4,66.8,29.70,NNE,27,0.0,0.0,98,0.00,,,0.00,VWS V14.01,2018-05-27 09:01:00,
2018-05-27 05:06:00,67.5,66.9,29.70,NNE,27,0.0,1.0,98,0.00,,,0.00,VWS V14.01,2018-05-27 09:06:00,
2018-05-27 05:11:00,67.6,67.0,29.70,NNE,27,0.0,1.0,98,0.00,,,0.00,VWS V14.01,2018-05-27 09:11:00,
2018-05-27 05:16:00,67.5,66.9,29.69,NNE,27,0.0,1.0,98,0.00,,,0.00,VWS V14.01,2018-05-27 09:16:00,
2018-05-27 05:21:00,67.6,67.0,29.70,NNE,27,0.0,1.0,98,0.00,,,0.00,VWS V14.01,2018-05-27 09:21:00,
2018-05-27 05:26:00,67.6,67.0,29.70,NNE,27,0.0,1.0,98,0.00,,,0.00,VWS V14.01,2018-05-27 09:26:00,
2018-05-27 05:31:00,67.5,66.9,29.70,NNE,27,0.0,1.0,98,0.00,,,0.00,VWS V14.01,2018-05-27 09:31:00,
2018-05-27 05:36:00,67.4,66.8,29.70,NNE,27,0.0,1.0,98,0.00,,,0.00,VWS V14.01,2018-05-27 09:36:00,
2018-05-27 05:41:00,67.4,66.8,29.70,NNE,27,0.0,1.0,98,0.00,,,0.00,VWS V14.01,2018-05-27 09:41:00,
2018-05-27 05:46:00,67.3,66.7,29.70,NNE,27,0.0,1.0,98,0.00,,,0.00,VWS V14.01,2018-05-27 09:46:00,
2018-05-27 05:51:00,67.3,66.7,29.71,NNE,27,0.0,1.0,98,0.00,,,0.00,VWS V14.01,2018-05-27 09:51:00,
2018-05-27 05:56:00,67.2,66.6,29.71,NNE,27,0.0,1.0,98,0.00,,,0.00,VWS V14.01,2018-05-27 09:56:00,
2018-05-27 06:01:00,67.0,66.4,29.71,NNE,18,0.0,0.0,98,0.00,,,0.00,VWS V14.01,2018-05-27 10:01:00,
2018-05-27 06:06:00,66.8,66.2,29.71,NNE,18,0.0,0.0,98,0.00,,,0.00,VWS V14.01,2018-05-27 10:06:00,
2018-05-27 06:11:00,66.7,66.1,29.72,NNE,18,0.0,0.0,98,0.00,,,0.00,VWS V14.01,2018-05-27 10:11:00,
2018-05-27 06:16:00,66.6,66.0,29.72,NNE,18,0.0,0.0,98,0.00,,,0.00,VWS V14.01,2018-05-27 10:16:00,
2018-05-27 06:21:00,66.6,66.0,29.72,NNE,18,0.0,0.0,98,0.00,,,0.00,VWS V14.01,2018-05-27 10:21:00,
2018-05-27 06:26:00,66.5,65.9,29.72,NNE,18,0.0,0.0,98,0.00,,,0.00,VWS V14.01,2018-05-27 10:26:00,
2018-05-27 06:31:00,66.4,65.8,29.73,NNE,18,0.0,0.0,98,0.00,,,0.00,VWS V14.01,2018-05-27 10:31:00,
2018-05-27 06:36:00,66.4,65.8,29.73,NNE,18,0.0,0.0,98,0.00,,,0.00,VWS V14.01,2018-05-27 10:36:00,
2018-05-27 06:41:00,66.2,65.6,29.73,NNE,18,0.0,0.0,98,0.00,,,0.00,VWS V14.01,2018-05-27 10:41:00,
2018-05-27 06:46:00,66.2,65.6,29.73,NNE,18,0.0,0.0,98,0.00,,,0.00,VWS V14.01,2018-05-27 10:46:00,
2018-05-27 06:51:00,66.6,66.3,29.73,NNE,18,0.0,0.0,99,0.00,,,0.00,VWS V14.01,2018-05-27 10:51:00,
2018-05-27 06:56:00,66.9,66.6,29.73,NNE,18,0.0,1.0,99,0.00,,,0.00,VWS V14.01,2018-05-27 10:56:00,
2018-05-27 07:01:00,67.2,66.9,29.74,NNE,18,0.0,0.0,99,0.00,,,0.00,VWS V14.01,2018-05-27 11:01:00,
2018-05-27 07:05:00,67.4,67.1,29.74,NNE,18,0.0,0.0,99,0.00,,,0.00,VWS V14.01,2018-05-27 11:05:00,
2018-05-27 07:10:00,67.6,67.3,29.74,NNE,18,0.0,1.0,99,0.00,,,0.00,VWS V14.01,2018-05-27 11:10:00,
2018-05-27 07:15:00,67.8,67.5,29.74,NNE,18,0.0,1.0,99,0.00,,,0.00,VWS V14.01,2018-05-27 11:15:00,
2018-05-27 07:20:00,68.1,67.8,29.74,NNE,18,0.0,1.0,99,0.00,,,0.00,VWS V14.01,2018-05-27 11:20:00,
2018-05-27 07:25:00,68.2,67.9,29.74,NNE,18,0.0,1.0,99,0.00,,,0.00,VWS V14.01,2018-05-27 11:25:00,
2018-05-27 07:30:00,68.3,68.0,29.74,NNE,18,0.0,1.0,99,0.00,,,0.00,VWS V14.01,2018-05-27 11:30:00,
2018-05-27 07:35:00,68.5,68.2,29.74,NNE,18,0.0,1.0,99,0.00,,,0.00,VWS V14.01,2018-05-27 11:35:00,
2018-05-27 07:40:00,68.7,68.4,29.75,NNE,18,0.0,1.0,99,0.00,,,0.00,VWS V14.01,2018-05-27 11:40:00,
2018-05-27 07:45:00,68.9,68.6,29.75,NNE,18,0.0,1.0,99,0.00,,,0.00,VWS V14.01,2018-05-27 11:45:00,
2018-05-27 07:50:00,69.1,68.8,29.75,NNE,18,0.0,1.0,99,0.00,,,0.00,VWS V14.01,2018-05-27 11:50:00,